Time,TemperatureF,DewpointF,PressureIn,WindDirection,WindDirectionDegrees,WindSpeedMPH,WindSpeedGustMPH,Humidity,HourlyPrecipIn,Conditions,Clouds,dailyrainin,SoftwareType,DateUTC
2016-12-06 00:03:00,34.0,30.0,-100.00,South,180,1.0,-999.0,85,-99.99,,,-99.99,,2016-12-06 08:03:00,
2016-12-06 00:12:00,34.0,30.0,-100.00,SW,225,-999.9,-999.0,85,-99.99,,,-99.99,,2016-12-06 08:12:00,
2016-12-06 00:23:00,34.0,30.0,-100.00,SW,225,-999.9,-999.0,85,-99.99,,,-99.99,,2016-12-06 08:23:00,
2016-12-06 00:33:00,34.0,30.0,-100.00,East,90,-999.9,-999.0,85,-99.99,,,-99.99,,2016-12-06 08:33:00,
2016-12-06 00:44:00,33.0,29.0,-100.00,NE,45,-999.9,-999.0,85,-99.99,,,-99.99,,2016-12-06 08:44:00,
2016-12-06 00:54:00,33.0,29.0,-100.00,NE,45,-999.9,-999.0,85,-99.99,,,-99.99,,2016-12-06 08:54:00,
2016-12-06 01:03:00,33.0,29.0,-100.00,East,90,-999.9,-999.0,85,-99.99,,,-99.99,,2016-12-06 09:03:00,
2016-12-06 01:13:00,33.0,29.0,-100.00,East,90,-999.9,-999.0,85,-99.99,,,-99.99,,2016-12-06 09:13:00,
2016-12-06 01:23:00,33.0,29.0,-100.00,South,180,-999.9,-999.0,85,-99.99,,,-99.99,,2016-12-06 09:23:00,
2016-12-06 01:33:00,33.0,29.0,-100.00,South,180,-999.9,-999.0,85,-99.99,,,-99.99,,2016-12-06 09:33:00,
2016-12-06 01:43:00,33.0,29.0,-100.00,SW,225,-999.9,-999.0,85,-99.99,,,-99.99,,2016-12-06 09:43:00,
2016-12-06 01:53:00,33.0,29.0,-100.00,SW,225,-999.9,-999.0,85,-99.99,,,-99.99,,2016-12-06 09:53:00,
2016-12-06 02:02:00,33.0,29.0,-100.00,SW,225,-999.9,-999.0,84,-99.99,,,-99.99,,2016-12-06 10:02:00,
2016-12-06 02:12:00,33.0,29.0,-100.00,SW,225,-999.9,-999.0,84,-99.99,,,-99.99,,2016-12-06 10:12:00,
2016-12-06 02:23:00,33.0,29.0,-100.00,North,0,1.0,-999.0,84,-99.99,,,-99.99,,2016-12-06 10:23:00,
2016-12-06 02:33:00,33.0,29.0,-100.00,North,0,1.0,-999.0,84,-99.99,,,-99.99,,2016-12-06 10:33:00,
2016-12-06 02:43:00,34.0,30.0,-100.00,SW,225,-999.9,-999.0,85,-99.99,,,-99.99,,2016-12-06 10:43:00,
2016-12-06 03:23:00,33.0,29.0,-100.00,NE,45,-999.9,-999.0,85,-99.99,,,-99.99,,2016-12-06 11:23:00,
2016-12-06 03:33:00,33.0,29.0,-100.00,South,180,-999.9,-999.0,84,-99.99,,,-99.99,,2016-12-06 11:33:00,
2016-12-06 03:43:00,33.0,29.0,-100.00,South,180,-999.9,-999.0,84,-99.99,,,-99.99,,2016-12-06 11:43:00,
2016-12-06 03:56:00,33.0,29.0,-100.00,SW,225,-999.9,-999.0,85,-99.99,,,-99.99,,2016-12-06 11:56:00,
2016-12-06 04:03:00,33.0,29.0,-100.00,SW,225,-999.9,-999.0,85,-99.99,,,-99.99,,2016-12-06 12:03:00,
2016-12-06 04:12:00,33.0,29.0,-100.00,East,90,1.0,-999.0,85,-99.99,,,-99.99,,2016-12-06 12:12:00,
2016-12-06 04:23:00,33.0,29.0,-100.00,East,90,1.0,-999.0,85,-99.99,,,-99.99,,2016-12-06 12:23:00,
2016-12-06 04:33:00,34.0,30.0,-100.00,East,90,-999.9,-999.0,85,-99.99,,,-99.99,,2016-12-06 12:33:00,
2016-12-06 04:43:00,34.0,30.0,-100.00,SE,135,-999.9,-999.0,85,-99.99,,,-99.99,,2016-12-06 12:43:00,
2016-12-06 04:54:00,34.0,30.0,-100.00,SE,135,-999.9,-999.0,85,-99.99,,,-99.99,,2016-12-06 12:54:00,
2016-12-06 05:03:00,34.0,30.0,-100.00,South,180,1.0,-999.0,85,-99.99,,,-99.99,,2016-12-06 13:03:00,
2016-12-06 05:13:00,34.0,30.0,-100.00,South,180,1.0,-999.0,85,-99.99,,,-99.99,,2016-12-06 13:13:00,
2016-12-06 05:33:00,34.0,30.0,-100.00,West,270,-999.9,-999.0,85,-99.99,,,-99.99,,2016-12-06 13:33:00,
2016-12-06 05:43:00,34.0,30.0,-100.00,SW,225,2.0,-999.0,85,-99.99,,,-99.99,,2016-12-06 13:43:00,
2016-12-06 05:53:00,34.0,30.0,-100.00,SW,225,2.0,-999.0,85,-99.99,,,-99.99,,2016-12-06 13:53:00,
2016-12-06 06:03:00,34.0,30.0,-100.00,West,270,1.0,-999.0,85,-99.99,,,-99.99,,2016-12-06 14:03:00,
2016-12-06 06:13:00,34.0,30.0,-100.00,West,270,1.0,-999.0,85,-99.99,,,-99.99,,2016-12-06 14:13:00,
2016-12-06 06:23:00,34.0,30.0,-100.00,SW,225,-999.9,-999.0,85,-99.99,,,-99.99,,2016-12-06 14:23:00,
2016-12-06 06:33:00,34.0,30.0,-100.00,SW,225,-999.9,-999.0,85,-99.99,,,-99.99,,2016-12-06 14:33:00,
2016-12-06 06:43:00,33.0,29.0,-100.00,South,180,3.0,-999.0,85,-99.99,,,-99.99,,2016-12-06 14:43:00,
2016-12-06 06:54:00,34.0,30.0,-100.00,NE,45,1.0,-999.0,85,-99.99,,,-99.99,,2016-12-06 14:54:00,
2016-12-06 07:03:00,34.0,30.0,-100.00,NE,45,1.0,-999.0,85,-99.99,,,-99.99,,2016-12-06 15:03:00,
2016-12-06 07:12:00,33.0,29.0,-100.00,SW,225,-999.9,-999.0,85,-99.99,,,-99.99,,2016-12-06 15:12:00,
2016-12-06 07:23:00,33.0,29.0,-100.00,SW,225,-999.9,-999.0,85,-99.99,,,-99.99,,2016-12-06 15:23:00,
2016-12-06 07:33:00,33.0,29.0,-100.00,SW,225,1.0,-999.0,85,-99.99,,,-99.99,,2016-12-06 15:33:00,
2016-12-06 07:43:00,33.0,29.0,-100.00,SW,225,1.0,-999.0,85,-99.99,,,-99.99,,2016-12-06 15:43:00,
2016-12-06 07:53:00,33.0,29.0,-100.00,SW,225,-999.9,-999.0,85,-99.99,,,-99.99,,2016-12-06 15:53:00,
2016-12-06 08:03:00,33.0,29.0,-100.00,SW,225,-999.9,-999.0,85,-99.99,,,-99.99,,2016-12-06 16:03:00,
2016-12-06 08:13:00,34.0,30.0,-100.00,South,180,4.0,-999.0,85,-99.99,,,-99.99,,2016-12-06 16:13:00,
2016-12-06 08:23:00,34.0,30.0,-100.00,South,180,4.0,-999.0,85,-99.99,,,-99.99,,2016-12-06 16:23:00,
2016-12-06 08:53:00,33.0,29.0,-100.00,SW,225,3.0,-999.0,85,-99.99,,,-99.99,,2016-12-06 16:53:00,
2016-12-06 09:03:00,33.0,29.0,-100.00,SW,225,4.0,-999.0,85,-99.99,,,-99.99,,2016-12-06 17:03:00,
2016-12-06 09:13:00,33.0,29.0,-100.00,SW,225,4.0,-999.0,85,-99.99,,,-99.99,,2016-12-06 17:13:00,
2016-12-06 09:23:00,33.0,29.0,-100.00,South,180,3.0,-999.0,85,-99.99,,,-99.99,,2016-12-06 17:23:00,
2016-12-06 09:46:00,33.0,29.0,-100.00,SW,225,3.0,-999.0,85,-99.99,,,-99.99,,2016-12-06 17:46:00,
2016-12-06 09:54:00,33.0,29.0,-100.00,SW,225,3.0,-999.0,85,-99.99,,,-99.99,,2016-12-06 17:54:00,
2016-12-06 10:04:00,33.0,29.0,-100.00,South,180,3.0,-999.0,85,-99.99,,,-99.99,,2016-12-06 18:04:00,
2016-12-06 10:13:00,33.0,29.0,-100.00,South,180,2.0,-999.0,85,-99.99,,,-99.99,,2016-12-06 18:13:00,
2016-12-06 10:23:00,33.0,29.0,-100.00,South,180,2.0,-999.0,85,-99.99,,,-99.99,,2016-12-06 18:23:00,
2016-12-06 10:34:00,34.0,30.0,-100.00,SW,225,2.0,-999.0,85,-99.99,,,-99.99,,2016-12-06 18:34:00,
2016-12-06 10:43:00,34.0,30.0,-100.00,SW,225,2.0,-999.0,85,-99.99,,,-99.99,,2016-12-06 18:43:00,